Torna al catalogo

YIXIAN-A (R)

AttivoScienzaSSO
NORAD 66999·PAYLOAD·🇨🇳 China
Questo nome del satellite non è ancora stato confermato da fonti ufficiali.

Lanciato Dec 10, 2025 da Jiuquan Satellite Launch Center

Loading…

Prossimi Passaggi (prossime 24 ore)

TLE

AggiornatoSource: Space-Track

Epoca: Sep 14, 2026, 03:47 UTC

1 66999U 25292G   26257.15785474  .00004001  00000-0  26832-3 0  9991
2 66999  97.6294 332.3718 0016197  71.5784 288.7202 15.07319887 41857

Traccia YIXIAN-A (R) in tempo reale con AllMySat

Download on the App Store